Regional Weather Roundup
Issued by NWS

Home | Current Version | Previous Version | Graphics & Text | Print | Product List | Glossary On
Versions: 1 2 3 4 5 6 7 8 9 10 11 12 13 14 15 16 17 18 19 20 21 22 23 24 25 26 27 28 29 30 31 32 33 34 35 36 37 38 39 40 41 42 43 44 45 46 47 48 49 50
000
ASUS43 KOAX 292002
RWRNE

WEATHER ROUNDUP FOR NEBRASKA
NATIONAL WEATHER SERVICE OMAHA NE
200 PM CST THU JAN 29 2015

NOTES: SATELLITE DATA IS BEING USED TO AUGMENT CLOUD COVER ABOVE
       12000 FEET.
       "FAIR" INDICATES FEW OR NO CLOUDS BELOW 12,000 FEET WITH NO
       SIGNIFICANT WEATHER AND/OR OBSTRUCTIONS TO VISIBILITY.

  * THESE STATIONS DO NOT REPORT WEATHER SUCH AS RAIN...SNOW OR FOG.

NEZ001>004-019>022-054>056-292100-
NEBRASKA PANHANDLE

CITY           SKY/WX    TMP DP  RH WIND       PRES   REMARKS
SCOTTSBLUFF    SUNNY     46  21  37 CALM      30.44F
ALLIANCE       SUNNY     42  15  33 NW7       30.44F
CHADRON        SUNNY     43  16  33 CALM      30.44F
SIDNEY         SUNNY     45  10  24 N9        30.45F
$$

NEZ057>060-069>072-079>082-292100-
SOUTHWEST NEBRASKA

CITY           SKY/WX    TMP DP  RH WIND       PRES   REMARKS
NORTH PLATTE   SUNNY     44  21  40 NW12      30.46F
IMPERIAL       SUNNY     44  22  41 N13       30.47F
LEXINGTON      SUNNY     45  24  43 N13       30.45F
MCCOOK         SUNNY     45  22  40 N13G22    30.47F
$$

NEZ005>010-023>029-035>040-094-292100-
NORTH CENTRAL NEBRASKA

CITY           SKY/WX    TMP DP  RH WIND       PRES   REMARKS
VALENTINE      SUNNY     43  21  41 NW10      30.44F
BROKEN BOW     SUNNY     45  23  42 N16G24    30.44F
ORD            SUNNY     44  21  40 N15       30.42F
$$

NEZ041-046>049-061>064-073>077-083>087-292100-
SOUTH CENTRAL NEBRASKA

CITY           SKY/WX    TMP DP  RH WIND       PRES   REMARKS
GRAND ISLAND   SUNNY     45  25  45 NW18      30.44F
AURORA         MOSUNNY   44  25  47 N20G28    30.42F
HASTINGS       SUNNY     45  24  43 N23G29    30.43F
KEARNEY *      SUNNY     45  23  42 NW15G21   30.44F
YORK           MOSUNNY   43  27  52 NW17G28   30.43S
$$

NEZ011>018-030>034-042>045-292100-
NORTHEAST NEBRASKA

CITY           SKY/WX    TMP DP  RH WIND       PRES   REMARKS
NORFOLK        PTSUNNY   39  24  55 N17G28    30.42S WCI  30
ALBION         SUNNY     43  25  49 NW20G25   30.42S
BLAIR          CLOUDY    37  24  59 NW22G32   30.40R WCI  27
COLUMBUS *     PTSUNNY   43  25  49 N20G25    30.44S
FREMONT        CLOUDY    39  26  61 NW15G24   30.43S WCI  30
TEKAMAH        CLOUDY    38  25  59 NW21      30.43R WCI  28
$$

NEZ050>053-065>068-078-088>093-292100-
SOUTHEAST NEBRASKA

CITY           SKY/WX    TMP DP  RH WIND       PRES   REMARKS
LINCOLN        CLOUDY    40  27  59 N20       30.44S WCI  30
OMAHA EPPLEY   CLOUDY    38  25  59 N24G30    30.40R WCI  27
FALLS CITY     CLOUDY    42  25  50 N17G26    30.39S
NEBRASKA CITY  CLOUDY    40  22  50 N23       30.40S WCI  29
$$

NEZ044-045-051>053-067-292100-
OMAHA AREA

CITY           SKY/WX    TMP DP  RH WIND       PRES   REMARKS
OMAHA EPPLEY   CLOUDY    38  25  59 N24G30    30.40R WCI  27
BLAIR          CLOUDY    37  24  59 NW22G32   30.40R WCI  27
FREMONT        CLOUDY    39  26  61 NW15G24   30.43S WCI  30
OFFUTT AFB     CLOUDY    38  24  57 NW23G31   30.41R WCI  27
WAHOO          CLOUDY    39  25  56 N18G30    30.42R WCI  30
$$


USA.gov is the U.S. government's official web portal to all federal, state and local government web resources and services.